Regional Weather Roundup
Issued by NWS

Home | Current Version | Previous Version | Graphics & Text | Print | Product List | Glossary On
Versions: 1 2 3 4 5 6 7 8 9 10 11 12 13 14 15 16 17 18 19 20 21 22 23 24 25 26 27 28 29 30 31 32 33 34 35 36 37 38 39 40 41 42 43 44 45 46 47 48 49 50
000
ASUS43 KMKX 310300
RWRWI

WISCONSIN REGIONAL WEATHER ROUNDUP
NATIONAL WEATHER SERVICE MILWAUKEE/SULLIVAN WI
1000 PM CDT THU JUL 30 2015

NOTE: "FAIR" INDICATES FEW OR NO CLOUDS BELOW 12,000 FEET WITH NO
SIGNIFICANT WEATHER AND/OR OBSTRUCTIONS TO VISIBILITY.

WIZ001-002-006>008-014>016-023>028-310400-
NORTHWEST WISCONSIN

CITY           SKY/WX    TMP DP  RH WIND       PRES   REMARKS
SUPERIOR ARPT  CLEAR     71  55  58 W6        29.93R
ASHLAND        CLEAR     65  56  72 SW6       29.92R
HAYWARD        PTCLDY    71  55  56 SW3       29.97R
SIREN          CLEAR     70  57  63 W5        29.98R
CUMBERLAND     CLEAR     64  55  72 W6        29.99S
RICE LAKE      CLEAR     68  57  68 SW5       30.00S
CHETEK         CLEAR     71  58  64 CALM      29.99S
LADYSMITH      CLEAR     72  56  58 W8        30.00R
EAU CLAIRE     CLEAR     70  56  61 SW6       29.99R
MENOMONIE      CLEAR     72  55  55 W5        30.00R
NEW RICHMOND   CLEAR     69  57  66 W5        30.01R
OSCEOLA        CLEAR     69  59  70 SW6       30.02R
$$

WIZ003>005-009-010-017-018-310400-
NORTH CENTRAL WISCONSIN

CITY           SKY/WX    TMP DP  RH WIND       PRES   REMARKS
MANITOWISH WTR CLEAR     64  58  83 W3        29.95R
ARBOR VITAE    CLEAR     69  59  71 W3        29.95S
WOODRUFF       CLEAR     69  59  71 W3        29.95S
RHINELANDER    CLEAR     63  58  83 W5        29.97R
EAGLE RIVER    CLEAR     59  59 100 CALM      29.94S
LAND O LAKES   CLEAR     58  56  95 CALM      29.95R
PHILLIPS       CLEAR     67  56  67 W3        29.97R
TOMAHAWK       CLEAR     64  59  83 SW3       29.97S
MEDFORD        CLEAR     68  57  68 W6        29.99S
MERRILL        NOT AVBL
$$

WIZ029-030-035-036-043>047-310400-
CENTRAL WISCONSIN

CITY           SKY/WX    TMP DP  RH WIND       PRES   REMARKS
WAUSAU         CLEAR     73  57  57 W14       29.96R
MOSINEE        CLEAR     68  57  68 W8        29.99R
MARSHFIELD     CLEAR     69  56  62 W5        30.00R
STEVENS POINT  CLEAR     72  56  57 W5        29.99R
WAUPACA        CLEAR     73  56  55 W6        29.97R
WAUTOMA        NOT AVBL
WISC RAPIDS    CLEAR     71  56  58 W6        30.00R
CAMP DOUGLAS   CLEAR     65  61  87 W6        30.01R
$$

WIZ011>013-019>022-031-037>040-048>050-310400-
NORTHEAST WISCONSIN

CITY           SKY/WX    TMP DP  RH WIND       PRES   REMARKS
ANTIGO         CLEAR     59  57  94 SW5       29.98R
SHAWANO        CLEAR     69  61  76 W3        29.95S
OCONTO         CLEAR     62  60  93 CALM      29.93R
STURGEON BAY   CLEAR     64  57  77 SW5       29.96R
GREEN BAY      PTCLDY    67  59  75 W3        29.95R
MANITOWOC      NOT AVBL
APPLETON       PTCLDY    72  54  53 W3        29.97R
CLINTONVILLE   CLEAR     68  57  68 W3        29.95S
OSHKOSH        CLEAR     72  54  53 W3        29.97R
$$

WIZ032>034-041-042-053>061-310400-
SOUTHWEST WISCONSIN

CITY           SKY/WX    TMP DP  RH WIND       PRES   REMARKS
LA CROSSE      CLEAR     77  59  53 W10       30.02R
SPARTA         CLEAR     67  57  71 CALM      30.03R
VIROQUA        CLEAR     68  58  71 W7        30.05R
BOSCOBEL       CLEAR     67  60  78 SW3       30.04R
PRAIRIE DU CHI CLEAR     68  59  72 E3        30.04R
PLATTEVILLE    CLEAR     69  60  73 W7        30.06R
$$

WIZ056-057-062-063-064-067-068-310400-
SOUTH CENTRAL WISCONSIN

CITY           SKY/WX    TMP DP  RH WIND       PRES   REMARKS
REEDSBURG      CLEAR     72  57  58 W3        30.01R
BARABOO/DELLS  CLEAR     72  53  51 W6        30.02R
LONE ROCK      NOT AVBL
MINERAL POINT  CLEAR     68  59  73 W5        30.06R
MADISON        CLEAR     74  55  51 W3        30.01R
MIDDLETON      CLEAR     68  55  62 W6        30.03R
WATERTOWN      CLEAR     70  58  65 CALM      30.00R
MONROE         CLEAR     73  57  56 W13       30.04R
JANESVILLE     CLEAR     72  55  56 W3        30.01R
$$

WIZ051-052-058>065-066-070>072-310400-
SOUTHEAST WISCONSIN

CITY           SKY/WX    TMP DP  RH WIND       PRES   REMARKS
MILWAUKEE      CLEAR     79  53  40 W8        29.98R
WAUKESHA       CLEAR     70  54  56 W8        30.01R
MILWAUKEE/TIMM CLEAR     73  52  46 W6        29.99
RACINE         CLEAR     74  56  53 W5        30.00R
BURLINGTON     CLEAR     68  55  62 W6        30.00R
KENOSHA        CLEAR     68  56  65 W6        30.00R
FOND DU LAC    CLEAR     72  56  57 W6        29.98R
SHEBOYGAN      CLEAR     67  58  72 W6        29.97R
WEST BEND      CLEAR     73  50  43 CALM      29.98R
JUNEAU         CLEAR     72  55  56 W8        30.01R
$$

LSZ147-162-310400-
LAKE SUPERIOR

STATION/POSITION TIME  TEMP    WIND        PRES    WAVE
                       AIR SEA DIR/SP/G            HT/PER
                 (UTC) (F)     (DEG/KT/KT) (MB)    (FT/S)
W MID LAKE BUOY  0150   60 54  220/ 10/ 12 1010.3F   2/ 4
DEVILS ISLAND    0200   66     260/ 16/ 18 1011.5R
PORT WING        0240   72     240/ 11/ 14 1012.9R
SAXON HARBOR     0200   68                 1011.9
$$

LMZ867-665-643>646-310400-
LAKE MICHIGAN

STATION/POSITION TIME  TEMP    WIND        PRES    WAVE
                       AIR SEA DIR/SP/G            HT/PER
                 (UTC) (F)     (DEG/KT/KT) (MB)    (FT/S)
CHAMBERS ISLAND  0200   68     230/  5/  7 1012.9S
S GREEN BAY BUOY 0200   69 70  290/  2/  4 1014.9R
N MID LAKE BUOY  0150   72 69  250/ 14/ 16 1011.3S   2/ 5
NORTHPORT PIER   0200   73     270/  5/  8 1012.2S
SISTER BAY       0229   72     280/ 14/ 15   N/A
ALGOMA LAKESHORE 0212             CALM       N/A
KEWAUNEE LAKESHO 0200   73     330/  2/  3 1013.2R
SHEBOYGAN LAKESH 0200   80     270/  7/  9 1014.0R
PORT WASHINGTON  0200   79     260/  5/  9 1014.9R
ATWATER BUOY     0200   74 63  270/  8/  8 1016.1R
MILWAUKEE LAKESH 0200   81     290/  7/ 11   N/A
KENOSHA   LAKESH 0200   81     260/  5/  8 1014.6R
$$

TC  - TEMPERATURE IN CELSIUS
VSB - VISIBILITY IN STATUTE MILES
WCI - WIND CHILL INDEX
HX  - HEAT INDEX




USA.gov is the U.S. government's official web portal to all federal, state and local government web resources and services.